Location: Newark
(54.3386°S, 169.8415°W)
Time: 06:38:44
(UTC+00:00)

Vanguard 2 - All Passes

Search period start: 20 October 2019 00:00
Search period end: 30 October 2019 00:00
Orbit: 554 x 2937 km, 32.9° (Epoch: 18 October)

Date Brightness Start Highest point End Pass type
(mag) Time Alt. Az. Time Alt. Az. Time Alt. Az.
20 Oct - 15:53:42 10° NNE 15:54:36 10° NNE 15:55:28 10° NNE daylight
20 Oct - 17:58:00 10° NNW 18:02:31 14° N 18:06:13 10° NNE daylight
21 Oct - 16:07:18 10° N 16:12:10 13° NNE 16:16:15 10° NE daylight
21 Oct - 18:14:56 10° NW 18:20:02 15° N 18:24:06 10° NNE daylight
22 Oct - 16:23:10 10° NNW 16:29:43 16° N 16:34:54 10° NE daylight
22 Oct - 18:32:12 10° NW 18:37:30 16° N 18:41:42 10° NNE daylight
23 Oct - 14:34:10 10° N 14:38:54 12° NNE 14:43:04 10° NE visible
23 Oct - 16:39:40 10° NNW 16:47:15 19° N 16:53:03 10° NE daylight
23 Oct - 18:49:45 10° NW 18:54:56 16° NNW 18:59:03 10° NNE daylight
24 Oct - 14:48:59 10° NNW 14:56:24 16° NNE 15:02:29 10° NE visible
24 Oct - 16:56:34 10° NW 17:04:47 20° N 17:10:55 10° NE daylight
24 Oct - 19:07:36 10° NW 19:12:18 14° NNW 19:16:07 10° N daylight
25 Oct - 15:04:53 10° NNW 15:13:55 19° NNE 15:21:02 10° NE visible
25 Oct - 17:13:45 10° NW 17:22:16 21° N 17:28:34 10° NE daylight
25 Oct - 19:25:50 10° NW 19:29:36 13° NNW 19:32:47 10° N daylight
26 Oct - 13:16:19 10° N 13:22:43 14° NNE 13:28:24 10° NE visible
26 Oct - 15:21:18 10° NNW 15:31:26 22° N 15:39:09 10° NE daylight
26 Oct - 17:31:09 10° NW 17:39:43 21° NNW 17:46:02 10° NNE daylight
26 Oct - 19:45:01 10° NW 19:46:49 11° NW 19:48:28 10° NNW daylight
27 Oct - 13:31:04 10° N 13:40:08 17° NNE 13:47:47 10° ENE visible
27 Oct - 15:38:06 10° NW 15:48:57 24° N 15:57:02 10° NE daylight
27 Oct - 17:48:46 10° WNW 17:57:07 21° NNW 18:03:19 10° NNE daylight
28 Oct - 13:46:49 10° NNW 13:57:34 21° NNE 14:06:21 10° ENE visible
28 Oct - 15:55:11 10° NW 16:06:26 26° N 16:14:44 10° NE daylight
28 Oct - 18:06:36 10° WNW 18:14:26 19° NNW 18:20:23 10° NNE daylight
29 Oct - 11:59:23 10° NNE 12:06:09 13° NE 12:12:24 10° ENE visible
29 Oct - 14:03:07 10° NNW 14:15:01 24° NNE 14:24:32 10° ENE visible
29 Oct - 16:12:28 10° NW 16:23:54 26° N 16:32:17 10° NE daylight
29 Oct - 18:24:41 10° WNW 18:31:41 17° NNW 18:37:10 10° N daylight
